Regional Weather Roundup
Issued by NWS State College, PA

Home | Current Version | Previous Version | Text Only | Print | Product List | Glossary Off
Versions: 1 2 3 4 5 6 7 8 9 10 11 12 13 14 15 16 17 18 19 20 21 22 23 24 25 26 27 28 29 30 31 32 33 34 35 36 37 38 39 40 41 42 43 44 45 46 47 48 49 50

000
ASUS41 KCTP 052310
RWRCTP

REGIONAL WEATHER ROUNDUP
NATIONAL WEATHER SERVICE STATE COLLEGE PA
600 PM EST FRI FEB 05 2016

Note: "fair" indicates few or no clouds below 12,000 feet with no
significant weather and/or obstructions to visibility.

* = STATION THAT DOES NOT REPORT PRECIPITATION /E.G. RAIN...SNOW...ETC/
    THUNDER OR FOG.

PAZ002>004-007>009-013>016-020>023-029>032-060000-
WESTERN PENNSYLVANIA

CITY           SKY/WX    TMP DP  RH WIND       PRES   REMARKS
ERIE           CLEAR     31  19  61 CALM      30.36R
MEADVILLE      CLEAR     30  14  51 CALM      30.32R
FRANKLIN*      CLEAR     27  14  59 W3        30.34R
NEW CASTLE     FAIR      30  19  63 CALM      30.36R
BEAVER COUNTY  PTCLDY    32  18  55 CALM      30.35R
BUTLER*        CLEAR     30  16  55 SW3       30.38R
PITTSBURGH INT PTCLDY    32  15  49 NW5       30.35R
PITTSBURGH     CLEAR     34  15  46 W5        30.34R
INDIANA*       CLEAR     30  18  59 NW5       30.36R
LATROBE        PTCLDY    32  16  51 W6        30.35R
WASHINGTON CO* CLEAR     32  16  51 W3        30.36R
$$

PAZ004>006-010>012-017>019-024>028-033>037-041-042-045-046-049>053-060000-
CENTRAL PENNSYLVANIA

CITY           SKY/WX    TMP DP  RH WIND       PRES   REMARKS
BRADFORD       CLOUDY    24  13  62 NW6       30.26R
DUBOIS         PTCLDY    26  13  57 W7        30.29R
CLEARFIELD     CLEAR     30  13  49 W7        30.30R
JOHNSTOWN      PTCLDY    26  13  57 W8        30.27R
ALTOONA        CLEAR     30  15  53 NW12      30.31R
STATE COLLEGE  CLEAR     30  16  55 W9        30.31R
WILLIAMSPORT   CLEAR     34  19  54 NW12      30.31R
SELINSGROVE    CLEAR     36  19  50 NW8       30.31R
FT INDIANTOWN  CLEAR     37  21  53 NW5       30.30R
CAPITAL CITY   PTCLDY    37  17  44 W12       30.33R
HARRISBURG     PTCLDY    37  21  52 W14       30.32R
YORK           CLEAR     34  19  54 W12       30.32R
$$

PAZ038>040-043-044-047-048-054-055-060>062-067>071-060000-
EASTERN PENNSYLVANIA

CITY           SKY/WX    TMP DP  RH WIND       PRES   REMARKS
SCRANTON       CLEAR     31  14  49 NW12      30.26R
MOUNT POCONO   CLEAR     27  11  51 NW15G24   30.18R
ALLENTOWN      CLEAR     36  15  42 N14       30.28R
QUAKERTOWN*    CLEAR     36  16  44 N10G16    30.28R
READING        PTCLDY    36  18  48 NW10      30.29R
LANCASTER      PTCLDY    35  22  58 W8        30.30R
COATESVILLE    CLEAR     36  25  64 NW14      30.29R
POTTSTOWN      CLEAR     36  17  46 NW12      30.29R
BLUE BELL        N/A     36  18  48 NW8       30.28R
DOYLESTOWN     CLEAR     34  15  46 NW13G22   30.26R
WILLOW GROVE   NOT AVBL
NORTH PHILA    CLEAR     38  19  46 NW12      30.29R
PHILADELPHIA   CLEAR     41  15  35 NW13      30.29R
$$



USA.gov is the U.S. government's official web portal to all federal, state and local government web resources and services.